Showing default

TIROS 3, 162

Orbit data source: Space-Track

TIROS 3, 162 is a payload satellite owned by GSFC (US) in LEO that was launched on Wed, 12 Jul 1961 UTC via a THOR DELTA launch vehicle from the Air Force Eastern Test Range (AFETR). Payload-class satellites include a variety of spacecraft equipped with specific instruments for various scientific and technological missions. These include communications satellites like Starlink; space stations such as the ISS; scientific satellites like the Hubble; Earth observation satellites from companies like Planet Labs, Umbra, and HawkEye 360; GPS; miniature CubeSats for education and research; and military/defense satellites.

Loading next visibility...
Identifier
162, 1961-017A
Orbit
LEO
Country
Flag of USUS
Related business
Manufacturer
RCA/East Windsor
Mission
Non-operational spacecraft
Bus & Motor
TIROS, Unknown motor
Mass
129 kg wet, 129 kg dry
Launch date (UTC)
1961-07-12 (64 years ago)
Launch vehicle
THOR DELTA
Launch site
Air Force Eastern Test Range (AFETR)
Object type
Payload
Rocket body
Debris
Shape & HBR
Unknown
Radar Cross Section
Medium (>0.1 m² and <1 m²)

Expand to show TLE details & history
Last TLE update: 1 day ago

TLE from 1 day ago
0 TIROS 3
1 00162U 61017A   25312.22998413  .00000203  00000-0  10306-3 0  9993
2 00162  47.8993 293.8955 0043223 120.6008 239.9159 14.45267617359810
Epoch: 2025-11-08T05:31Z
TLE epoch observation values (Epoch: 2025-11-08T05:31:10.628Z)
Latitude
-0.00001°
Longitude
163.43863°
Altitude
756.981 km
Speed
7.469 km/s
True Right ascension
19h 35m 34s
True Declination
0° 00' 00"
Sunlit
Object was in daylight at epoch
Visualization orbit readout
Latitude
Unknown
Longitude
Unknown
Altitude
Unknown
Speed
Unknown
Apparent Right ascension
Unknown
Apparent Declination
Unknown
Sunlit
N/A
Visualization observer readout
Local Sidereal Time
08:18:23
Azimuth
Unknown
Elevation
Unknown
Doppler factor
Unknown
Orbital elements
Apogee altitude
773.006 km
Perigee altitude
711.453 km
Semi-major axis
7,120.366 km
Eccentricity
0.00432
Inclination
47.8993°
RAAN
293.8955°
Arg. of periapsis
120.6008°
True anomaly
239.48848°
Mean anomaly
239.9159°
Eccentric anomaly
239.70208°
Mean motion
3.61235 °/min
Orbital period
99.66 mins
BSTAR
0.00010306
Loading maneuver chart data...
Computing Atmospheric mass density...
Loading historical data...
Loading historical data...
Loading historical data...
Loading historical data...
Loading historical data...
Loading historical data...
Loading historical data...
Other satellites on launch #17 in the year 1961 (1961-07-12 UTC)

Documentation

Showing up to 5 results
|